Wind_Speed
32 27 24 25 25 26 27 29 27 32 35 35 33 27 20 25 29 30 30 31 30 30 31 33 36 38 40 39 37 35 33 29 30 34 39 39 40 47
24 26 28 27 28 28 30 32 33 32 31 36 36 35 33 34 31 31 34 34 34 34 36 40 44 48 48 44 44 44 44 40 33 36 37 44 44 42
26 26 31 32 34 31 33 35 36 34 34 38 36 40 38 40 42 43 39 36 39 40 43 48 51 50 45 44 46 48 48 48 45 38 41 44 52 48
30 29 32 36 33 34 38 42 41 35 31 34 40 43 39 37 35 34 34 39 43 46 48 49 49 49 47 48 49 52 53 52 46 44 45 52 58 56
29 27 28 30 32 36 37 38 44 38 38 36 37 37 37 36 32 37 38 41 46 46 47 49 47 47 48 50 55 58 55 48 46 46 49 54 60 63
31 34 32 35 35 35 38 38 41 43 41 39 33 33 33 35 35 38 38 40 43 44 45 49 50 53 53 52 54 55 48 45 46 49 55 58 57 58
33 36 38 38 36 37 41 40 38 43 43 46 44 41 37 36 35 34 38 44 49 49 48 48 50 52 53 55 48 44 46 46 46 50 56 59 60 60
37 37 39 39 37 39 40 41 43 43 44 42 50 50 46 42 43 42 44 49 50 50 52 51 52 52 51 49 47 46 44 45 46 50 53 56 61 61
40 44 41 41 39 40 42 42 39 42 49 50 48 49 50 50 45 42 48 47 49 48 49 48 46 50 49 46 45 46 45 48 51 52 51 52 54 59
42 42 43 45 40 42 45 44 44 48 49 50 50 46 54 54 53 53 48 47 45 46 45 46 45 45 42 41 42 45 45 49 51 53 54 55 55 55
44 41 44 44 43 43 44 43 42 50 54 51 52 54 54 55 58 58 51 49 47 44 41 42 41 40 41 38 41 41 41 46 51 54 57 58 60 61
45 44 42 43 44 45 49 44 48 53 49 50 53 54 55 56 55 54 51 49 47 44 42 43 42 39 38 38 39 38 40 48 55 55 63 66 71 71
46 43 44 45 48 44 45 48 50 52 51 54 54 52 52 53 53 49 43 41 40 40 39 40 40 40 40 38 35 37 42 46 50 61 64 55 49 48
48 47 44 44 49 44 44 53 53 54 58 55 52 51 49 45 42 42 41 41 41 41 38 38 39 39 39 39 39 37 42 46 55 49 44 39 40 42
48 47 45 44 45 47 53 55 53 53 51 50 46 42 40 41 41 39 38 36 34 34 36 37 36 37 39 40 40 39 46 43 38 41 36 36 37 38
46 46 45 42 50 50 51 49 50 51 47 42 40 37 38 38 35 34 34 34 33 33 34 35 34 38 37 39 41 41 51 34 30 33 34 37 37 36
48 44 45 45 49 48 48 49 47 44 41 38 39 37 37 34 34 35 35 34 33 33 32 33 34 35 36 39 39 43 50 36 29 28 31 25 29 31
43 41 43 45 45 45 43 43 41 39 35 34 35 34 34 34 35 35 34 33 32 31 31 32 32 30 30 36 43 47 46 34 28 21 29 23 21 23
40 41 41 41 39 39 36 36 36 36 35 34 34 34 34 33 32 30 29 29 30 30 30 31 30 29 28 29 31 43 41 29 19 20 11 9 8 18
38 37 37 36 32 32 34 35 36 36 35 34 33 33 32 30 28 26 27 28 28 27 27 27 27 27 30 31 30 35 32 18 16 16 11 8 13 16
31 31 30 28 31 31 29 29 29 29 29 30 30 29 28 27 26 25 25 25 25 24 24 25 25 26 28 33 30 35 34 23 17 15 15 15 14 18
28 27 27 27 25 26 26 26 27 27 26 26 27 27 28 27 26 26 25 25 25 26 25 26 25 25 26 30 27 37 30 26 16 15 17 15 17 19
23 22 21 21 23 23 25 26 27 27 27 26 26 26 25 24 24 24 24 24 24 26 26 26 26 25 26 27 23 34 28 27 11 14 15 11 15 23
Wind_Direction
277 280 290 290 291 289 293 293 293 301 291 286 284 284 281 282 276 272 277 288 288 294 296 297 299 302 295 297 299 298 296 290 270 273 268 258 251 244
293 283 293 304 286 287 288 293 292 294 288 281 282 284 289 283 278 283 286 286 288 288 293 294 295 294 292 288 287 292 295 296 281 259 259 259 255 252
307 289 289 302 298 290 293 292 298 296 285 280 277 283 285 286 288 286 282 278 276 283 289 291 294 294 289 286 288 293 295 294 289 267 253 258 252 247
313 309 298 293 296 293 292 295 300 297 290 287 281 283 289 289 287 280 275 277 281 283 288 292 298 295 290 290 291 294 294 292 283 273 256 249 249 245
318 315 314 306 298 297 297 301 301 298 293 293 289 284 285 284 280 281 284 284 286 292 294 293 294 293 293 294 292 292 294 290 282 267 258 255 255 248
308 308 308 307 305 305 306 306 307 301 298 294 285 276 273 272 284 291 293 296 294 292 291 293 294 294 294 295 294 292 286 275 268 262 257 255 253 251
306 301 299 303 303 306 305 305 304 307 297 290 287 284 273 274 279 290 296 300 293 288 288 290 292 293 295 297 291 279 274 271 265 261 259 256 251 249
298 298 296 295 297 300 302 303 303 304 304 298 296 288 274 268 271 286 299 296 291 290 288 288 291 295 296 292 284 277 271 262 262 261 261 258 252 249
294 294 293 292 293 295 298 297 303 306 302 300 296 288 284 274 280 285 301 297 291 289 289 290 293 294 293 286 280 276 270 261 262 264 261 259 255 250
298 288 291 291 295 289 298 289 282 301 300 296 294 291 280 279 279 289 301 297 296 295 293 293 294 293 285 280 278 272 270 265 264 266 265 259 254 250
298 293 290 289 288 290 292 296 294 290 295 291 290 290 290 293 298 301 301 301 297 292 291 292 291 287 281 281 277 276 274 270 268 269 268 263 258 253
300 300 297 294 297 293 295 292 295 293 291 292 294 294 294 296 297 297 299 298 295 294 292 291 290 286 284 281 281 278 275 273 274 273 269 270 266 261
301 302 302 298 298 289 294 285 290 296 291 301 299 297 295 295 296 295 292 292 292 291 289 286 286 284 285 280 287 281 279 276 279 278 274 270 260 257
304 301 297 295 298 286 290 295 295 292 295 298 298 299 298 297 295 292 294 294 293 292 292 288 284 286 291 289 294 290 286 290 290 277 269 254 258 255
300 297 295 291 280 282 289 291 295 296 299 302 300 298 297 297 292 292 293 293 292 295 293 289 290 293 295 295 299 299 299 303 287 276 261 257 266 257
294 295 296 287 288 287 289 302 300 301 302 300 299 298 297 296 295 297 295 291 293 295 296 297 298 297 296 300 304 306 307 307 282 273 264 269 266 256
299 298 294 293 289 293 297 299 299 300 300 297 294 294 295 298 297 295 293 293 296 296 295 300 298 300 301 302 306 310 316 314 287 279 273 269 269 249
300 299 297 295 296 300 299 302 303 303 302 298 298 298 298 298 297 296 296 297 298 298 299 301 298 299 303 309 314 317 320 310 298 285 268 278 263 239
299 299 301 302 303 305 306 305 305 304 303 302 300 300 301 300 300 300 300 300 301 302 303 304 305 306 307 308 308 316 314 299 291 258 285 271 290 270
301 303 302 305 307 306 306 305 305 303 302 299 299 301 301 303 303 303 303 303 304 305 303 306 310 313 317 316 312 320 324 296 274 287 266 277 252 243
304 303 307 307 308 311 313 313 312 311 309 306 305 303 304 305 304 304 303 304 304 304 304 309 315 319 320 323 325 332 330 312 289 266 269 260 236 219
307 307 308 311 314 316 317 320 321 318 315 310 307 305 305 303 303 302 301 300 302 304 307 311 315 320 323 327 329 335 335 326 282 261 256 279 219 206
308 307 309 315 318 321 323 324 327 326 318 312 308 307 305 304 302 301 300 300 302 303 306 312 315 318 323 327 329 337 338 343 291 256 259 262 237 198
Height
5878 5878 5878 5876 5875 5874 5874 5872 5870 5868 5864 5861 5861 5862 5863 5860 5859 5860 5859 5859 5858 5856 5854 5854 5852 5850 5850 5849 5850 5851 5852 5854 5856 5858 5859 5860 5863 5866
5873 5874 5873 5871 5869 5868 5867 5864 5863 5862 5860 5856 5853 5852 5853 5852 5851 5851 5849 5848 5848 5848 5847 5845 5844 5843 5841 5840 5839 5840 5840 5840 5841 5844 5846 5848 5851 5854
5870 5869 5868 5866 5863 5860 5859 5857 5855 5852 5851 5848 5846 5843 5843 5842 5842 5841 5841 5840 5839 5839 5836 5833 5833 5831 5830 5830 5828 5826 5825 5826 5827 5829 5832 5835 5838 5840
5866 5863 5861 5860 5857 5854 5852 5849 5848 5845 5843 5842 5838 5835 5835 5832 5831 5830 5829 5828 5826 5824 5824 5822 5820 5818 5817 5816 5814 5812 5812 5811 5812 5813 5815 5818 5821 5825
5861 5859 5856 5854 5851 5848 5845 5843 5839 5836 5833 5830 5828 5825 5823 5820 5820 5819 5818 5816 5815 5812 5810 5809 5808 5807 5804 5802 5800 5798 5798 5797 5797 5797 5799 5801 5804 5809
5855 5853 5850 5847 5845 5842 5838 5835 5831 5828 5825 5822 5819 5816 5813 5811 5809 5807 5807 5803 5801 5799 5797 5795 5794 5793 5791 5789 5785 5783 5781 5781 5782 5782 5782 5784 5786 5789
5850 5846 5842 5840 5837 5834 5831 5827 5823 5821 5817 5813 5810 5808 5807 5804 5800 5796 5794 5793 5792 5789 5787 5783 5779 5777 5775 5772 5770 5768 5765 5764 5764 5765 5765 5765 5767 5770
5843 5840 5835 5831 5829 5826 5821 5817 5814 5811 5808 5802 5800 5796 5794 5789 5786 5784 5783 5781 5778 5773 5771 5769 5764 5764 5758 5755 5753 5751 5750 5749 5746 5746 5746 5747 5750 5753
5837 5830 5826 5821 5821 5817 5813 5810 5806 5802 5797 5793 5790 5786 5781 5775 5772 5771 5768 5765 5763 5758 5755 5754 5748 5748 5743 5740 5737 5735 5733 5733 5731 5730 5731 5731 5733 5737
5826 5822 5818 5814 5812 5807 5803 5798 5795 5790 5786 5781 5777 5773 5769 5763 5758 5757 5754 5751 5747 5742 5738 5738 5733 5733 5728 5725 5721 5719 5718 5716 5715 5713 5713 5714 5716 5719
5814 5809 5808 5804 5800 5797 5792 5789 5783 5778 5774 5768 5764 5760 5756 5750 5745 5741 5739 5735 5731 5728 5723 5722 5719 5718 5714 5712 5708 5705 5703 5700 5697 5695 5694 5694 5695 5697
5806 5801 5796 5792 5789 5784 5779 5776 5772 5766 5762 5756 5751 5747 5742 5737 5732 5727 5725 5720 5716 5714 5709 5707 5705 5701 5701 5697 5695 5693 5689 5684 5679 5676 5672 5670 5670 5671
5795 5791 5787 5782 5776 5771 5766 5761 5758 5753 5749 5745 5739 5734 5729 5724 5719 5716 5713 5709 5705 5702 5697 5694 5692 5688 5684 5684 5683 5678 5673 5668 5663 5655 5648 5645 5645 5647
5783 5778 5773 5767 5761 5757 5753 5749 5744 5740 5735 5730 5725 5721 5717 5712 5708 5703 5699 5695 5691 5688 5685 5681 5678 5674 5670 5667 5666 5665 5657 5650 5639 5631 5629 5628 5631 5633
5770 5765 5760 5756 5753 5745 5740 5735 5731 5727 5722 5717 5713 5708 5704 5700 5696 5692 5688 5684 5682 5679 5674 5669 5665 5661 5657 5652 5649 5646 5639 5635 5623 5617 5616 5618 5618 5619
5757 5752 5748 5742 5739 5735 5729 5723 5718 5714 5709 5704 5700 5696 5692 5689 5685 5681 5679 5676 5673 5670 5664 5659 5656 5651 5647 5639 5635 5632 5623 5614 5611 5606 5605 5606 5605 5605
5743 5739 5733 5729 5726 5722 5717 5713 5707 5702 5698 5693 5688 5686 5682 5678 5675 5672 5669 5666 5663 5660 5656 5652 5648 5642 5636 5628 5626 5621 5611 5603 5598 5597 5595 5595 5593 5592
5730 5726 5722 5718 5715 5711 5706 5700 5695 5691 5688 5684 5680 5676 5672 5669 5666 5663 5659 5656 5654 5650 5646 5643 5639 5636 5631 5622 5609 5606 5600 5593 5590 5589 5587 5586 5585 5586
5719 5715 5711 5706 5703 5698 5694 5690 5686 5682 5677 5673 5670 5666 5663 5660 5657 5653 5651 5648 5645 5642 5638 5635 5631 5626 5623 5619 5612 5601 5592 5587 5585 5583 5583 5583 5584 5583
5708 5705 5701 5697 5693 5690 5686 5682 5678 5673 5669 5666 5662 5659 5656 5652 5649 5646 5644 5641 5638 5635 5632 5628 5623 5618 5613 5609 5605 5597 5583 5580 5579 5578 5578 5579 5580 5580
5699 5696 5694 5690 5686 5683 5680 5675 5671 5666 5662 5658 5655 5652 5649 5646 5643 5640 5638 5635 5632 5629 5626 5622 5618 5613 5608 5603 5597 5590 5582 5573 5573 5573 5575 5574 5575 5577
5691 5689 5686 5684 5680 5678 5674 5670 5666 5661 5657 5652 5649 5645 5642 5640 5637 5634 5632 5629 5626 5623 5620 5617 5612 5608 5603 5599 5592 5586 5580 5572 5569 5570 5571 5572 5573 5577
5685 5682 5680 5678 5675 5672 5668 5665 5660 5656 5651 5647 5643 5640 5636 5634 5631 5628 5626 5623 5621 5617 5614 5612 5608 5604 5600 5596 5591 5585 5578 5572 5567 5568 5569 5571 5572 5574